Location: ????????
(55.6333°N, 37.7000°E)
Time: 11:44:08
(UTC+00:00)

Cosmos 44 Rocket - Pass Details

Date: 19 May 2025
Orbit: 651 x 728 km, 65.1° (Epoch: 13 June)

Event Time Altitude Azimuth Distance (km) Brightness Sun altitude
Rises 22:57:50 0° 311° (NW) 3,019 6.9 -11.9°
Reaches altitude 10° 23:00:12 10° 306° (NW) 2,112 6.0 -11.8°
Maximum altitude 23:04:47 47° 234° (SW) 907 3.5 -11.5°
Drops below altitude 10° 23:09:27 10° 161° (SSE) 2,147 5.4 -11.2°
Enters shadow 23:10:56 - 157° (SSE) 2,712 6.0 -11.2°
